Erie, PA

2:10 PM EST on November 20, 2019 (GMT -0500)
Erie International

Weather History for KERI - September, 2019

Change the Weather History Date:

Monday, September 30, 2019

  Actual Average Record
Temperature  
Mean Temperature 68 °F 58 °F  
Max Temperature 75 °F 66 °F 86 °F (1881)
Min Temperature 62 °F 51 °F 37 °F (1951)
Degree Days  
Heating Degree Days 0 7  
Month to date heating degree days 104  
Since 1 July heating degree days 124  
Cooling Degree Days 4 1  
Month to date cooling degree days 71  
Year to date cooling degree days 629  
Growing Degree Days 18 (Base 50)    
Moisture  
Dew Point 59 °F    
Average Humidity 73    
Maximum Humidity 84    
Minimum Humidity 64    
Precipitation  
Precipitation 0.00 in 0.16 in 3.99 in (1959)
Month to date precipitation 4.61  
Year to date precipitation 30.44  
Snow  
Snow - 0.00 in - ()
Month to date snowfall 0.0  
Since 1 July snowfall 0.0  
Since 1 September snowfall 0.0  
Snow Depth -    
Sea Level Pressure  
Sea Level Pressure 30.13 in    
Wind  
Wind Speed 5 mph ()    
Max Wind Speed 13 mph    
Max Gust Speed -    
Visibility 10.0 miles    
Events      
T = Trace of Precipitation, MM = Missing Value Source: Averaged Metar Reports

Daily Weather History Graph

Daily Weather History Graph

Search for Another Location

Airport or City:

Astronomy

Sep. 30, 2019 Rise Set
Actual Time 7:16 AM EDT 7:04 PM EDT
Civil Twilight 6:48 AM EDT 7:32 PM EDT
Nautical Twilight 6:16 AM EDT 8:04 PM EDT
Astronomical Twilight 5:43 AM EDT 8:37 PM EDT
Moon 9:19 AM EDT (9/30) 8:37 PM EDT (9/30)
Length of Visible Light 12h 43m
Length of Day
11h 48m
Waxing Crescent, 5% of the Moon is Illuminated
Sep 30
Waxing Crescent
Oct 5
First Quarter
Oct 13
Full
Oct 21
Last Quarter
Oct 27
New

Hourly Weather History & Observations

Time (EDT) Temp. Dew Point Humidity Pressure Visibility Wind Dir Wind Speed Gust Speed Precip Events Conditions
12:51 AM 63.0 °F 54.0 °F 72% 30.21 in 10.0 mi ENE 10.4 mph - N/A   Overcast
1:51 AM 63.0 °F 54.0 °F 72% 30.20 in 10.0 mi ENE 10.4 mph - N/A   Overcast
2:51 AM 62.1 °F 54.0 °F 75% 30.18 in 10.0 mi ENE 8.1 mph - N/A   Overcast
3:51 AM 63.0 °F 53.1 °F 70% 30.17 in 10.0 mi ENE 6.9 mph - N/A   Overcast
4:51 AM 63.0 °F 53.1 °F 70% 30.17 in 10.0 mi ENE 4.6 mph - N/A   Overcast
5:51 AM 63.0 °F 54.0 °F 72% 30.17 in 10.0 mi ENE 5.8 mph - N/A   Overcast
6:08 AM 63.0 °F 55.0 °F 75% 30.17 in 10.0 mi ENE 5.8 mph - N/A   Overcast
6:51 AM 63.0 °F 55.0 °F 75% 30.17 in 10.0 mi East 4.6 mph - N/A   Overcast
7:34 AM 63.0 °F 55.0 °F 75% 30.17 in 10.0 mi Calm Calm - N/A   Overcast
7:51 AM 64.0 °F 55.0 °F 73% 30.17 in 10.0 mi Calm Calm - N/A   Overcast
8:51 AM 66.0 °F 57.9 °F 75% 30.17 in 10.0 mi Calm Calm - N/A   Overcast
9:27 AM 66.0 °F 57.0 °F 73% 30.19 in 10.0 mi NNE 3.5 mph - N/A   Overcast
9:39 AM 66.0 °F 57.9 °F 75% 30.19 in 10.0 mi NNE 3.5 mph - N/A   Overcast
9:51 AM 66.9 °F 57.9 °F 73% 30.19 in 10.0 mi Calm Calm - N/A   Overcast
10:51 AM 69.1 °F 60.1 °F 73% 30.18 in 10.0 mi Calm Calm - N/A   Overcast
11:31 AM 71.1 °F 61.0 °F 70% 30.17 in 10.0 mi Calm Calm - N/A   Overcast
11:39 AM 73.0 °F 62.1 °F 68% 30.16 in 10.0 mi Calm Calm - N/A   Mostly Cloudy
11:47 AM 73.4 °F 62.6 °F 69% 30.16 in 10.0 mi Calm Calm - N/A   Overcast
11:51 AM 73.0 °F 62.1 °F 68% 30.15 in 10.0 mi West 4.6 mph - N/A   Overcast
12:51 PM 72.0 °F 61.0 °F 68% 30.14 in 10.0 mi NW 4.6 mph - N/A   Overcast
1:51 PM 71.1 °F 62.1 °F 73% 30.12 in 10.0 mi NE 3.5 mph - N/A   Overcast
2:51 PM 72.0 °F 61.0 °F 68% 30.10 in 10.0 mi North 6.9 mph - N/A   Overcast
3:23 PM 73.9 °F 62.1 °F 66% 30.10 in 10.0 mi North 5.8 mph - N/A   Scattered Clouds
3:51 PM 73.9 °F 62.1 °F 66% 30.09 in 10.0 mi North 6.9 mph - N/A   Clear
4:51 PM 75.0 °F 62.1 °F 64% 30.07 in 10.0 mi NNW 6.9 mph - N/A   Clear
5:51 PM 72.0 °F 62.1 °F 71% 30.06 in 10.0 mi ENE 5.8 mph - N/A   Partly Cloudy
6:51 PM 71.1 °F 63.0 °F 75% 30.07 in 10.0 mi NW 4.6 mph - N/A   Scattered Clouds
7:51 PM 69.1 °F 62.1 °F 78% 30.08 in 10.0 mi ENE 3.5 mph - N/A   Scattered Clouds
8:51 PM 69.1 °F 63.0 °F 81% 30.06 in 10.0 mi Calm Calm - N/A   Clear
9:51 PM 71.1 °F 66.0 °F 84% 30.04 in 10.0 mi South 8.1 mph - N/A   Clear
10:51 PM 73.0 °F 66.9 °F 81% 30.01 in 10.0 mi South 12.7 mph - N/A   Clear
11:51 PM 73.0 °F 66.0 °F 79% 30.02 in 10.0 mi South 10.4 mph - N/A   Clear